Temperature
21 22 21 21 22 21 21 21 21 21 20 20 20 20 20 20 20 20 20 20 19 19 19 19 19 19 19 19 19 19 19 18 18 18 18 18 18 18 18 18 17 17 17
23 22 21 21 21 21 21 21 21 20 20 20 20 20 20 20 20 20 20 20 19 19 19 19 19 19 19 19 19 19 19 18 18 18 18 18 18 18 18 18 18 17 17
23 22 21 21 21 21 21 21 20 20 20 20 20 20 20 20 20 20 20 20 19 19 19 19 19 19 19 19 19 19 19 18 18 18 18 18 18 18 18 18 17 17 17
23 22 22 21 21 21 21 21 20 20 20 20 20 19 19 19 19 19 20 20 19 19 19 19 19 19 19 19 19 19 19 19 18 18 18 18 18 18 18 18 18 18 17
23 22 22 21 21 21 21 21 20 20 20 20 20 19 19 19 19 19 19 20 19 19 19 19 19 20 20 20 19 19 19 18 18 18 18 18 18 18 18 18 18 18 18
23 22 22 22 22 21 21 21 21 20 20 20 20 20 19 19 19 19 19 19 19 19 19 19 19 20 20 20 20 19 19 18 18 18 18 18 18 18 18 18 18 18 18
23 22 22 22 22 22 21 21 21 21 20 20 20 20 20 19 19 19 19 19 19 19 19 19 20 20 20 20 20 19 19 18 18 18 18 18 18 18 19 19 18 18 18
24 23 22 22 22 22 21 21 21 21 21 20 20 20 20 20 20 19 19 19 19 19 19 19 19 20 20 20 20 20 19 19 18 18 18 18 18 18 19 19 19 19 18
23 23 22 22 22 22 21 21 21 21 21 20 20 20 20 20 20 20 20 20 19 19 19 19 19 20 20 20 20 20 19 19 18 18 18 18 18 18 19 19 19 19 19
22 22 22 22 21 21 21 21 20 20 20 20 20 20 20 20 20 20 20 20 19 19 19 19 19 19 20 20 20 20 20 19 19 18 18 18 18 18 18 19 19 19 19
21 21 21 21 21 20 20 20 20 20 20 20 20 20 20 19 19 19 19 19 19 19 19 19 19 19 19 19 19 20 20 19 19 19 18 18 18 18 18 18 19 19 19
21 20 20 20 20 20 20 19 19 19 19 19 19 19 19 19 19 19 19 19 18 18 18 18 18 18 19 19 19 19 19 20 19 19 19 18 18 18 18 18 18 19 19
20 20 19 19 19 20 19 19 19 19 19 19 19 19 18 18 19 19 18 18 18 18 18 18 18 18 18 18 18 19 19 19 19 19 19 19 18 18 18 18 18 18 19
19 19 19 19 19 19 19 19 19 19 19 19 18 18 18 18 18 18 18 18 18 18 17 17 17 17 17 17 17 18 18 18 19 19 19 19 19 18 18 18 18 18 18
19 19 19 19 19 19 18 18 18 18 18 18 18 18 18 18 18 18 17 17 17 17 17 17 17 17 17 17 17 17 17 18 18 18 19 19 19 18 18 18 18 18 18
19 19 19 19 18 18 18 18 18 18 18 18 18 18 18 17 17 17 17 17 17 17 17 17 17 16 16 16 17 16 17 17 17 18 18 18 18 18 18 18 18 18 18
18 18 18 18 18 18 18 18 18 18 17 17 17 17 17 17 17 17 17 17 17 17 17 16 16 16 16 16 16 16 16 16 16 17 18 18 17 17 18 17 17 18 18
18 18 18 18 18 18 18 18 17 17 17 17 17 17 16 16 16 16 16 16 16 16 16 16 16 16 16 16 16 16 16 16 16 16 17 17 17 17 17 17 17 17 18
18 18 18 18 18 18 18 17 17 17 16 16 16 16 16 16 16 16 16 16 15 15 15 15 15 15 15 15 15 15 15 15 15 16 16 16 17 17 17 17 17 17 17
18 18 18 18 18 17 17 17 17 16 16 16 15 15 15 15 15 15 15 15 15 15 15 15 15 15 15 15 15 15 15 15 15 16 16 16 16 17 17 17 17 17 17
18 18 18 18 17 17 17 16 16 16 15 15 15 14 14 14 14 14 14 14 14 14 14 14 14 14 14 14 14 14 15 15 15 15 16 16 16 17 17 17 17 17 17
18 18 17 17 17 16 16 16 15 15 14 14 14 14 13 13 13 13 13 13 14 14 14 14 14 14 14 14 14 14 14 15 15 15 16 16 17 17 16 17 17 17 17
18 18 17 17 16 16 15 15 15 14 14 14 14 13 13 13 13 13 13 13 13 13 13 13 13 13 13 13 13 13 14 14 15 15 16 16 16 17 17 17 17 17 17
18 18 17 17 16 15 15 14 14 14 13 13 12 12 12 12 13 13 13 13 13 13 13 13 13 13 13 13 13 13 13 14 14 15 16 16 16 16 17 17 17 17 17
18 18 17 16 16 15 14 14 14 13 12 12 12 12 12 12 12 12 12 12 12 12 12 12 12 13 13 13 13 13 13 13 14 14 15 16 16 16 17 17 17 17 17
18 17 17 16 15 15 14 13 13 12 12 12 11 11 11 11 12 12 12 12 12 12 12 12 12 12 12 12 12 13 13 13 13 14 14 15 16 16 17 17 17 17 17
Wind_Speed
11 13 20 19 19 19 19 18 17 17 17 17 17 18 18 18 18 18 18 17 16 15 14 13 12 12 12 13 14 15 15 16 16 17 17 17 16 15 17 17 17 16 19
15 17 20 19 19 19 19 18 17 17 16 16 16 16 16 16 16 16 16 15 14 14 13 12 12 11 11 12 13 13 14 14 15 16 16 15 14 15 16 16 16 15 18
18 17 19 19 18 19 19 18 17 17 16 16 15 15 15 15 14 14 14 13 13 13 12 12 11 11 11 11 11 12 12 13 13 14 14 12 13 14 17 17 17 17 17
16 16 17 19 18 18 18 18 17 16 16 15 15 14 14 13 13 13 12 12 12 12 12 12 11 11 11 11 10 10 11 11 12 12 10 10 11 16 17 17 17 17 17
13 15 18 19 18 18 18 17 16 16 15 15 14 14 14 13 13 12 12 11 11 11 12 11 11 11 10 10 10 9 9 9 10 9 9 9 11 16 17 17 17 17 16
12 14 18 19 18 17 17 17 16 15 14 14 14 14 13 13 12 12 12 11 11 11 11 12 12 11 11 10 9 9 9 8 8 5 9 12 13 17 17 17 17 16 16
13 13 17 19 18 17 16 16 15 14 13 13 13 13 12 12 12 11 11 11 11 11 11 12 12 12 11 11 10 9 9 9 7 5 8 13 15 18 18 18 17 16 16
15 12 15 18 18 17 16 15 14 14 13 13 12 12 12 11 11 11 11 12 12 12 12 12 13 13 13 12 11 10 10 9 7 6 9 14 17 20 19 19 18 17 17
13 10 10 14 15 16 15 15 14 13 13 12 12 11 11 11 11 11 12 13 13 13 13 13 14 14 14 14 13 12 11 11 8 5 8 12 18 21 21 21 19 18 18
10 9 7 9 11 12 13 14 14 13 12 12 12 11 11 11 11 12 12 13 14 15 15 16 16 16 16 16 15 14 13 12 10 7 7 11 19 23 22 22 22 20 19
10 7 6 6 7 9 9 11 12 12 12 11 11 11 11 10 10 11 13 14 16 17 17 17 18 17 17 17 17 16 14 11 10 9 9 13 20 24 24 24 23 23 21
9 8 6 6 6 8 8 9 8 9 10 10 10 10 10 10 10 12 13 16 18 19 20 20 19 19 17 14 16 17 13 13 12 11 12 15 20 25 26 26 25 25 24
8 8 6 4 4 5 3 5 4 5 6 8 9 10 9 8 9 9 8 10 13 16 16 17 18 16 14 12 11 12 13 13 12 13 14 17 21 26 27 28 28 27 26
9 9 6 5 5 4 4 3 2 1 2 3 4 5 4 3 3 4 4 6 7 8 9 10 9 12 13 14 12 11 12 12 13 14 15 18 20 26 29 29 28 28 27
9 8 7 7 6 4 4 2 3 2 2 2 2 2 3 2 2 2 3 4 5 6 5 5 6 8 9 10 13 12 11 14 15 15 15 19 20 24 28 29 28 27 27
8 7 7 7 5 5 5 4 3 3 3 3 3 3 3 2 0 1 2 3 3 4 5 5 5 7 8 8 11 12 12 13 15 16 15 17 20 23 26 28 28 27 27
6 5 6 7 6 7 6 5 4 4 5 3 3 4 4 3 2 1 2 3 3 4 4 3 4 4 6 8 10 12 11 11 11 13 14 15 17 21 26 28 28 27 27
6 6 6 7 8 7 6 5 4 5 4 3 3 3 4 4 3 2 2 3 4 4 2 3 3 4 5 6 6 8 9 8 10 11 12 14 14 16 22 28 29 29 28
6 6 6 6 6 6 6 5 4 4 4 3 2 1 1 2 2 2 1 2 3 2 3 4 3 3 4 5 6 6 7 8 9 11 10 11 14 16 17 23 29 30 30
6 6 5 5 5 5 4 4 4 5 4 3 3 2 1 1 1 1 1 2 2 2 3 3 4 4 4 5 6 6 6 7 7 9 11 10 12 16 18 19 20 25 31
5 5 5 5 3 3 2 2 2 3 4 4 3 4 3 3 3 2 2 3 2 2 3 4 3 4 4 3 3 4 5 6 8 9 9 9 11 13 16 18 19 19 19
6 6 6 5 4 3 2 1 1 1 2 2 2 4 4 5 5 4 4 4 3 2 3 3 2 3 3 2 2 2 3 3 5 9 8 10 11 9 12 16 17 18 18
7 7 7 7 5 4 3 2 2 2 3 4 3 3 4 7 8 6 5 5 4 3 3 3 3 2 3 3 2 2 2 3 3 4 7 9 9 9 11 9 13 17 19
7 6 6 6 5 4 3 2 2 1 2 3 3 4 6 7 7 7 5 4 4 3 4 4 2 2 2 3 3 3 3 3 2 3 3 5 7 8 10 11 12 12 17
5 5 5 5 4 3 3 3 2 2 3 3 3 5 6 6 6 6 5 4 4 3 4 4 3 3 2 3 3 2 3 3 3 3 3 3 3 5 7 9 9 9 14
3 4 4 5 3 3 3 2 2 3 4 4 4 5 5 4 5 7 6 4 4 4 5 5 5 4 4 3 3 3 2 3 2 2 3 3 3 4 6 7 8 9 9
Wind_Direction
151 156 148 142 137 132 130 127 125 121 118 115 114 114 114 114 116 118 121 123 126 128 128 125 121 117 114 114 115 116 117 118 119 120 120 118 116 117 117 115 113 113 116
150 152 146 141 138 135 134 132 131 129 125 123 121 120 120 120 121 123 125 128 130 132 132 130 127 123 121 121 122 123 124 125 125 124 120 116 115 121 123 120 118 122 122
143 145 143 140 138 136 135 136 136 134 132 131 129 129 128 128 129 131 133 135 137 138 139 138 136 134 132 131 131 131 131 130 129 125 119 113 115 123 127 125 124 125 125
138 138 141 139 137 135 136 137 139 140 139 139 138 138 139 139 141 142 143 146 148 149 150 149 148 146 144 144 144 143 142 141 139 134 131 132 124 126 130 130 130 129 129
131 134 140 138 137 135 136 138 141 144 146 147 147 149 150 152 155 156 157 160 162 163 162 160 159 157 157 158 159 159 158 158 159 155 157 154 139 137 137 137 137 136 135
129 134 141 139 138 137 138 140 143 146 150 153 156 158 161 164 167 169 171 174 176 176 174 171 169 168 169 172 174 176 177 177 177 166 160 157 153 149 147 146 144 144 143
134 138 142 142 142 141 141 143 146 149 154 158 162 165 169 173 178 180 182 185 189 190 188 183 181 180 181 184 190 194 197 197 193 176 171 168 168 160 156 155 153 152 151
140 140 144 146 146 146 147 149 152 156 161 165 170 175 178 182 186 191 193 195 199 201 200 196 192 190 191 195 200 207 213 215 209 196 183 180 179 168 163 162 160 160 159
136 137 140 149 152 153 155 158 161 164 168 173 179 184 189 193 198 203 207 208 209 210 210 207 203 200 199 201 206 214 222 228 227 203 195 188 188 177 172 169 168 168 168
131 139 141 148 153 157 163 168 170 173 178 184 189 194 199 206 212 218 220 220 219 218 218 215 213 210 209 208 211 216 225 234 238 230 219 204 195 186 181 177 175 175 176
135 141 144 150 157 162 168 178 180 183 190 195 202 207 210 217 225 231 233 232 231 229 226 222 219 217 215 216 217 219 225 231 234 237 229 218 203 195 188 185 182 181 182
133 142 148 158 167 174 183 180 188 196 201 205 209 216 217 219 227 235 239 241 240 239 235 230 226 223 221 220 221 222 223 226 230 235 234 228 213 204 195 191 189 187 187
108 118 122 124 132 150 148 154 185 204 207 215 218 222 221 225 236 243 245 253 251 247 241 235 231 227 223 219 218 219 221 223 230 234 236 232 218 209 203 197 194 193 191
93 92 92 91 82 86 104 132 157 180 194 202 213 215 202 217 242 251 251 254 252 247 238 232 226 226 226 225 222 222 223 225 228 231 236 237 225 213 208 203 199 198 195
85 78 71 66 66 70 71 56 65 60 86 112 127 162 165 184 244 263 269 273 269 256 242 236 230 232 231 229 228 227 227 228 228 228 232 236 229 217 209 205 204 203 202
83 84 79 71 62 62 63 59 54 56 64 63 65 87 114 134 193 294 301 297 286 272 255 243 239 238 238 235 233 228 228 229 232 229 230 235 230 219 212 208 206 206 208
81 80 82 74 58 55 45 38 46 43 50 45 44 65 78 84 72 16 325 314 305 299 283 264 256 248 246 242 239 234 230 229 232 231 228 229 229 224 216 211 209 210 211
93 80 69 74 61 54 46 35 30 35 39 35 36 51 59 64 60 46 358 323 311 304 289 274 258 252 253 248 242 237 232 230 235 235 230 228 224 224 221 218 215 214 215
118 110 93 81 73 66 54 45 35 29 22 9 7 19 40 55 63 57 357 315 322 314 300 292 281 260 263 260 253 240 230 232 236 239 235 230 225 221 222 224 222 219 219
144 135 121 102 89 80 58 42 27 18 2 351 332 297 290 298 338 23 298 301 310 305 298 288 284 279 263 262 266 260 240 233 230 231 234 231 226 224 223 225 225 225 222
163 152 147 138 128 103 70 56 31 356 337 339 329 317 314 303 298 288 287 292 296 285 284 286 281 285 278 266 271 275 253 234 233 234 229 226 227 226 224 223 221 221 224
183 175 168 165 158 144 137 141 162 239 295 305 333 340 326 310 299 289 268 265 267 272 295 297 279 283 280 271 261 277 274 255 239 237 231 228 227 223 222 223 220 219 220
194 189 179 176 167 163 146 106 38 17 354 352 343 328 317 311 300 289 271 259 247 233 254 269 264 269 281 286 258 242 250 251 268 247 231 230 223 218 221 217 217 217 216
199 185 173 170 166 167 153 141 149 182 275 269 275 290 305 311 311 307 291 274 249 233 240 256 252 244 265 284 291 265 253 257 259 291 276 236 227 220 220 222 220 214 214
178 165 161 156 164 175 171 172 179 233 246 268 293 311 315 319 323 327 316 295 267 249 249 253 258 255 241 252 264 279 282 268 242 245 284 293 266 235 225 219 216 210 209
119 123 136 144 170 196 196 207 217 248 264 286 304 310 312 314 318 323 324 320 298 276 261 257 254 257 254 254 255 252 256 272 274 254 264 283 273 259 236 222 216 211 207
Height
1518 1521 1524 1527 1529 1531 1532 1534 1535 1537 1538 1540 1541 1542 1543 1544 1545 1546 1548 1549 1550 1550 1551 1552 1553 1553 1554 1554 1554 1554 1555 1555 1555 1556 1556 1556 1557 1557 1557 1558 1559 1560 1561
1517 1521 1524 1527 1529 1531 1533 1535 1536 1538 1539 1540 1542 1543 1544 1545 1546 1547 1548 1549 1550 1551 1552 1552 1553 1554 1554 1555 1555 1555 1556 1556 1557 1557 1558 1558 1559 1559 1559 1560 1561 1562 1563
1518 1521 1524 1527 1530 1532 1534 1535 1537 1538 1540 1541 1542 1543 1544 1545 1546 1547 1548 1549 1550 1551 1552 1553 1553 1554 1555 1555 1556 1556 1557 1557 1558 1559 1559 1560 1560 1561 1561 1561 1562 1563 1565
1519 1522 1525 1528 1530 1532 1534 1536 1538 1539 1540 1541 1542 1543 1544 1545 1546 1547 1548 1549 1550 1551 1552 1552 1553 1554 1555 1556 1556 1557 1558 1558 1559 1559 1560 1561 1561 1562 1562 1563 1564 1565 1566
1521 1524 1526 1529 1531 1533 1535 1536 1538 1539 1540 1541 1542 1543 1544 1545 1546 1547 1548 1549 1549 1550 1551 1552 1553 1554 1555 1556 1557 1558 1558 1559 1559 1560 1561 1562 1562 1563 1563 1564 1565 1566 1567
1523 1525 1528 1530 1532 1533 1535 1537 1538 1539 1540 1541 1542 1543 1544 1544 1545 1546 1547 1548 1549 1550 1551 1552 1553 1554 1555 1556 1557 1558 1559 1559 1560 1560 1561 1562 1563 1564 1564 1565 1566 1567 1568
1523 1527 1529 1531 1533 1534 1536 1537 1538 1539 1540 1541 1542 1542 1543 1544 1545 1545 1546 1547 1548 1549 1550 1551 1552 1553 1554 1556 1557 1558 1558 1559 1560 1560 1561 1562 1563 1564 1565 1566 1566 1567 1569
1525 1527 1530 1532 1534 1535 1536 1537 1538 1539 1540 1540 1541 1542 1542 1543 1544 1544 1545 1546 1547 1548 1549 1550 1551 1552 1553 1554 1556 1557 1558 1559 1559 1560 1561 1562 1563 1564 1565 1566 1567 1568 1569
1527 1529 1531 1533 1534 1536 1537 1538 1538 1539 1539 1540 1541 1541 1542 1542 1543 1543 1544 1545 1546 1546 1547 1548 1549 1550 1551 1553 1554 1556 1557 1558 1558 1559 1560 1561 1562 1564 1565 1566 1567 1568 1569
1529 1530 1532 1534 1535 1536 1537 1538 1539 1539 1539 1540 1540 1541 1541 1541 1542 1542 1543 1543 1544 1544 1545 1546 1547 1548 1549 1551 1552 1553 1555 1556 1557 1558 1558 1559 1561 1562 1564 1565 1566 1567 1569
1529 1531 1533 1534 1535 1536 1537 1538 1538 1539 1539 1539 1539 1540 1540 1540 1541 1541 1541 1541 1542 1542 1543 1544 1545 1546 1547 1548 1549 1550 1552 1553 1555 1556 1556 1557 1559 1560 1562 1563 1565 1566 1567
1529 1531 1532 1534 1535 1536 1537 1538 1538 1538 1538 1538 1538 1538 1538 1539 1539 1539 1539 1539 1539 1539 1540 1540 1541 1542 1543 1544 1546 1547 1547 1549 1551 1552 1553 1555 1556 1558 1559 1561 1562 1564 1565
1529 1531 1533 1533 1534 1535 1536 1537 1537 1537 1537 1537 1537 1537 1537 1537 1537 1536 1536 1536 1536 1536 1536 1536 1537 1538 1538 1539 1540 1542 1543 1545 1546 1548 1549 1551 1553 1554 1556 1558 1560 1561 1563
1531 1532 1532 1533 1534 1534 1535 1536 1536 1535 1535 1535 1535 1534 1534 1534 1534 1533 1533 1533 1532 1532 1532 1532 1532 1532 1533 1533 1535 1536 1538 1539 1541 1543 1545 1547 1548 1550 1552 1553 1556 1558 1559
1531 1532 1532 1533 1534 1534 1534 1534 1534 1534 1533 1532 1532 1532 1531 1531 1530 1530 1529 1529 1528 1527 1526 1527 1526 1527 1527 1527 1528 1529 1531 1533 1535 1537 1539 1541 1543 1544 1546 1549 1551 1553 1556
1531 1531 1532 1532 1533 1533 1533 1533 1532 1532 1532 1531 1530 1530 1529 1528 1527 1527 1526 1524 1523 1522 1521 1521 1521 1521 1520 1521 1521 1522 1523 1526 1528 1530 1533 1535 1537 1539 1541 1543 1545 1548 1551
1532 1532 1532 1533 1533 1532 1532 1532 1531 1531 1530 1529 1528 1527 1526 1525 1524 1523 1522 1521 1519 1518 1517 1516 1515 1514 1514 1514 1514 1514 1515 1517 1520 1523 1526 1528 1530 1533 1535 1537 1539 1542 1545
1533 1533 1533 1533 1532 1532 1532 1531 1530 1529 1528 1527 1526 1525 1523 1522 1521 1520 1518 1517 1515 1514 1512 1511 1510 1509 1508 1507 1506 1506 1507 1509 1511 1515 1518 1521 1523 1526 1528 1531 1533 1536 1539
1534 1534 1533 1533 1533 1532 1532 1531 1529 1528 1527 1525 1524 1522 1521 1519 1518 1516 1514 1513 1511 1509 1508 1507 1505 1504 1502 1501 1500 1499 1499 1501 1503 1507 1510 1513 1516 1519 1521 1524 1527 1530 1532
1534 1534 1533 1533 1532 1532 1531 1529 1528 1526 1525 1523 1521 1519 1518 1517 1515 1513 1511 1510 1508 1506 1504 1503 1501 1500 1498 1496 1495 1493 1493 1494 1496 1499 1502 1505 1508 1511 1514 1517 1520 1523 1526
1533 1533 1532 1532 1531 1530 1529 1527 1525 1523 1521 1520 1518 1516 1515 1514 1512 1510 1508 1507 1505 1503 1501 1499 1497 1496 1494 1493 1491 1489 1487 1488 1489 1492 1495 1498 1501 1504 1507 1510 1513 1516 1519
1531 1531 1530 1529 1528 1527 1525 1524 1522 1520 1518 1516 1515 1513 1512 1510 1508 1507 1505 1503 1502 1500 1498 1497 1494 1493 1491 1490 1489 1487 1484 1484 1484 1486 1488 1490 1493 1497 1500 1503 1506 1509 1511
1529 1528 1528 1526 1525 1524 1523 1521 1519 1517 1515 1513 1511 1509 1507 1506 1504 1503 1501 1500 1498 1497 1496 1494 1492 1490 1489 1487 1486 1486 1483 1481 1481 1481 1482 1484 1487 1490 1493 1496 1499 1502 1505
1527 1527 1526 1524 1523 1522 1520 1518 1516 1513 1510 1508 1506 1504 1503 1501 1500 1498 1497 1496 1495 1494 1493 1491 1490 1488 1487 1485 1484 1483 1483 1481 1480 1479 1479 1480 1482 1484 1487 1490 1493 1496 1499
1526 1525 1524 1523 1521 1520 1518 1515 1513 1510 1507 1505 1503 1500 1499 1497 1496 1495 1493 1492 1491 1490 1489 1488 1487 1486 1484 1483 1482 1481 1479 1479 1479 1478 1477 1477 1478 1479 1482 1484 1487 1490 1493
1525 1524 1522 1521 1519 1517 1515 1513 1510 1507 1504 1502 1499 1497 1495 1494 1492 1491 1489 1488 1487 1486 1485 1484 1483 1482 1481 1480 1479 1478 1477 1477 1476 1476 1475 1474 1475 1476 1478 1480 1482 1485 1488